TimeCDT,TemperatureF,Dew PointF,Humidity,Sea Level PressureIn,VisibilityMPH,Wind Direction,Wind SpeedMPH,Gust SpeedMPH,PrecipitationIn,Events,Conditions,WindDirDegrees,DateUTC
12:15 AM,70.7,65.3,83,29.97,10.0,East,3.5,-,N/A,,Clear,100,2013-08-30 05:15:00
12:55 AM,69.8,64.8,84,29.97,10.0,ESE,4.6,-,N/A,,Clear,110,2013-08-30 05:55:00
1:15 AM,68.9,64.6,86,29.97,10.0,Calm,Calm,-,N/A,,Clear,0,2013-08-30 06:15:00
1:35 AM,70.0,64.8,83,29.97,10.0,SSE,4.6,-,N/A,,Clear,150,2013-08-30 06:35:00
1:55 AM,71.2,62.8,75,29.97,10.0,South,5.8,-,N/A,,Clear,170,2013-08-30 06:55:00
2:15 AM,67.8,62.8,84,29.97,10.0,Calm,Calm,-,N/A,,Clear,0,2013-08-30 07:15:00
2:35 AM,65.7,62.8,90,29.97,10.0,Calm,Calm,-,N/A,,Clear,0,2013-08-30 07:35:00
2:55 AM,65.7,63.1,92,29.98,10.0,NNW,3.5,-,N/A,,Clear,330,2013-08-30 07:55:00
3:15 AM,64.8,62.2,92,29.97,10.0,Calm,Calm,-,N/A,,Clear,0,2013-08-30 08:15:00
3:35 AM,64.8,62.6,93,29.97,10.0,North,3.5,-,N/A,,Clear,360,2013-08-30 08:35:00
3:55 AM,65.7,62.8,90,29.97,10.0,WNW,4.6,-,N/A,,Clear,290,2013-08-30 08:55:00
4:15 AM,64.8,62.1,91,29.97,10.0,West,4.6,-,N/A,,Clear,260,2013-08-30 09:15:00
4:35 AM,64.2,61.9,92,29.97,10.0,WNW,6.9,-,N/A,,Clear,300,2013-08-30 09:35:00
4:55 AM,64.4,62.6,94,29.97,10.0,WNW,3.5,-,N/A,,Clear,290,2013-08-30 09:55:00
5:15 AM,63.5,61.7,94,29.97,10.0,West,4.6,-,N/A,,Clear,280,2013-08-30 10:15:00
5:35 AM,63.5,61.9,94,29.97,7.0,West,5.8,-,N/A,,Clear,270,2013-08-30 10:35:00
5:55 AM,63.1,61.7,95,29.98,7.0,West,4.6,-,N/A,,Clear,270,2013-08-30 10:55:00
6:15 AM,63.5,62.1,95,29.98,7.0,West,4.6,-,N/A,,Clear,270,2013-08-30 11:15:00
6:35 AM,62.8,61.3,95,29.98,7.0,WNW,5.8,-,N/A,,Clear,290,2013-08-30 11:35:00
6:55 AM,62.4,60.8,94,29.99,7.0,WNW,5.8,-,N/A,,Clear,300,2013-08-30 11:55:00
7:15 AM,61.9,60.3,94,29.99,7.0,NW,4.6,-,N/A,,Clear,310,2013-08-30 12:15:00
7:35 AM,62.8,61.0,94,30.00,5.0,WNW,4.6,-,N/A,,Clear,290,2013-08-30 12:35:00
7:55 AM,64.9,62.8,93,30.01,7.0,West,4.6,-,N/A,,Clear,280,2013-08-30 12:55:00
9:15 AM,75.0,68.5,80,30.02,10.0,NW,3.5,-,N/A,,Clear,320,2013-08-30 14:15:00
9:35 AM,77.0,69.8,78,30.03,10.0,North,3.5,-,N/A,,Clear,350,2013-08-30 14:35:00
9:55 AM,80.1,71.2,74,30.03,10.0,NE,6.9,-,N/A,,Clear,50,2013-08-30 14:55:00
10:15 AM,83.5,71.2,66,30.03,10.0,NE,8.1,-,N/A,,Clear,40,2013-08-30 15:15:00
10:35 AM,85.5,70.7,61,30.03,10.0,NE,9.2,-,N/A,,Clear,50,2013-08-30 15:35:00
10:55 AM,87.3,70.9,58,30.03,10.0,NE,9.2,-,N/A,,Clear,50,2013-08-30 15:55:00
11:15 AM,88.9,70.0,53,30.02,10.0,NE,9.2,-,N/A,,Clear,50,2013-08-30 16:15:00
11:35 AM,90.1,68.4,49,30.02,10.0,ENE,12.7,-,N/A,,Clear,70,2013-08-30 16:35:00
11:55 AM,90.9,66.9,45,30.02,10.0,ENE,12.7,-,N/A,,Clear,70,2013-08-30 16:55:00
12:15 PM,91.8,67.6,45,30.02,10.0,NE,9.2,-,N/A,,Clear,50,2013-08-30 17:15:00
12:35 PM,93.0,66.9,42,30.01,10.0,East,11.5,-,N/A,,Clear,90,2013-08-30 17:35:00
12:55 PM,93.6,67.1,42,30.01,10.0,East,11.5,-,N/A,,Clear,90,2013-08-30 17:55:00
1:15 PM,94.3,66.0,39,30.01,10.0,East,11.5,-,N/A,,Clear,80,2013-08-30 18:15:00
1:35 PM,95.0,66.4,39,30.00,10.0,ENE,10.4,-,N/A,,Clear,70,2013-08-30 18:35:00
1:55 PM,95.0,66.7,39,29.99,10.0,East,10.4,-,N/A,,Clear,90,2013-08-30 18:55:00
2:15 PM,95.0,66.6,39,29.99,10.0,East,10.4,-,N/A,,Clear,80,2013-08-30 19:15:00
2:35 PM,95.2,66.4,39,29.99,10.0,East,8.1,-,N/A,,Clear,100,2013-08-30 19:35:00
2:55 PM,95.5,63.9,35,29.99,10.0,East,9.2,-,N/A,,Clear,100,2013-08-30 19:55:00
3:15 PM,96.1,64.4,35,29.98,10.0,East,10.4,-,N/A,,Clear,90,2013-08-30 20:15:00
3:35 PM,95.9,64.8,36,29.97,10.0,East,6.9,-,N/A,,Clear,80,2013-08-30 20:35:00
3:55 PM,96.4,63.7,34,29.97,10.0,ESE,9.2,-,N/A,,Clear,120,2013-08-30 20:55:00
4:15 PM,96.4,64.0,34,29.97,10.0,East,9.2,-,N/A,,Clear,100,2013-08-30 21:15:00
4:35 PM,96.1,64.4,35,29.96,10.0,East,8.1,-,N/A,,Clear,90,2013-08-30 21:35:00
4:55 PM,95.9,65.7,37,29.96,10.0,East,9.2,-,N/A,,Clear,100,2013-08-30 21:55:00
5:15 PM,95.5,65.7,37,29.95,10.0,East,11.5,-,N/A,,Clear,90,2013-08-30 22:15:00
5:35 PM,95.4,66.2,38,29.94,10.0,East,11.5,17.3,N/A,,Clear,80,2013-08-30 22:35:00
5:55 PM,95.0,65.5,38,29.94,10.0,East,11.5,-,N/A,,Clear,90,2013-08-30 22:55:00
6:15 PM,93.9,66.0,40,29.94,10.0,East,10.4,-,N/A,,Clear,90,2013-08-30 23:15:00
6:35 PM,93.2,67.5,43,29.93,10.0,East,10.4,-,N/A,,Clear,100,2013-08-30 23:35:00
6:55 PM,90.1,68.9,49,29.93,10.0,ESE,8.1,-,N/A,,Clear,110,2013-08-30 23:55:00
7:15 PM,89.2,69.4,52,29.93,10.0,East,8.1,-,N/A,,Clear,100,2013-08-31 00:15:00
7:35 PM,87.1,68.9,55,29.93,10.0,East,8.1,-,N/A,,Clear,80,2013-08-31 00:35:00
7:55 PM,84.4,69.8,61,29.93,10.0,East,8.1,-,N/A,,Clear,80,2013-08-31 00:55:00
8:15 PM,81.7,69.8,67,29.94,10.0,East,4.6,-,N/A,,Clear,90,2013-08-31 01:15:00
8:35 PM,81.7,69.1,65,29.94,10.0,East,5.8,-,N/A,,Clear,90,2013-08-31 01:35:00
8:55 PM,80.8,68.9,67,29.95,10.0,East,5.8,-,N/A,,Clear,80,2013-08-31 01:55:00
9:15 PM,79.2,69.8,73,29.97,10.0,Calm,Calm,-,N/A,,Clear,0,2013-08-31 02:15:00
9:35 PM,77.9,70.0,76,29.98,10.0,Calm,Calm,-,N/A,Thunderstorm,Clear,0,2013-08-31 02:35:00
9:55 PM,80.6,67.5,64,30.02,10.0,West,16.1,32.2,N/A,Thunderstorm,Scattered Clouds,260,2013-08-31 02:55:00
10:15 PM,78.4,65.3,64,30.04,10.0,West,10.4,-,N/A,,Scattered Clouds,260,2013-08-31 03:15:00
10:35 PM,76.3,64.4,67,30.04,10.0,SW,11.5,17.3,N/A,Rain-Thunderstorm,Light Thunderstorms and Rain,230,2013-08-31 03:35:00
10:55 PM,73.8,63.0,69,30.03,10.0,WSW,13.8,-,N/A,Rain,Light Rain,250,2013-08-31 03:55:00
11:15 PM,71.8,64.9,79,30.04,10.0,West,9.2,-,0.02,Rain,Light Rain,260,2013-08-31 04:15:00
11:35 PM,72.5,66.2,81,30.07,10.0,NW,16.1,21.9,0.03,Rain,Light Rain,320,2013-08-31 04:35:00
11:55 PM,71.6,66.6,84,30.08,7.0,NNW,18.4,26.5,0.06,Rain,Rain,330,2013-08-31 04:55:00